Notices

What's New in latest Release from April 7th, 2021:

- Updated Glossary, including Speed of Maximum Gust, and Total Hourly Precipitation

- Updated national and regional climate services offices contacts and prices information

- Addition of station inventory lists for 1981-2010, 1971-2000, and 1961-1990 Normals.

If you haven't already, please take our survey and provide feedback about our website: https://eccc.sondage-survey.ca/f/LanguageSelection.aspx?s=442ca660-fcf1-47c0-95a9-59707d6fd709

Hourly Data Report for April 15, 2021

NANAIMO A
BRITISH COLUMBIA
Current Station Operator: NAVCAN

49°03'16.000" N
123°52'12.000" W
28.00 m
1025365
YCD

Download Data

Hourly Data (April 2021)
Hourly Data Report for April 15, 2021
TIME
LST
Temp Definition
°C
Dew Point Definition
°C
Rel Hum Definition
%
Precip. Amount Definition
mm

Wind Dir Definition
10's deg

Wind Spd Definition
km/h
Visibility Definition
km
Stn Press Definition
kPa
Hmdx Definition


Wind Chill Definition


Weather Definition


00:00 10.7 -2.9 39 LegendMM 32 4 LegendMM 101.66     LegendNANA
01:00 10.1 -2.5 41 LegendMM 28 8 LegendMM 101.64     LegendNANA
02:00 9.7 -2.2 43 LegendMM 27 9 LegendMM 101.65     LegendNANA
03:00 6.2 -1.3 59 LegendMM 28 4 LegendMM 101.67     LegendNANA
04:00 9.2 -1.7 46 LegendMM 30 13 LegendMM 101.68     LegendNANA
05:00 4.3 -1.1 68 LegendMM 24 4 LegendMM 101.72     LegendNANA
06:00 8.2 -0.9 53 LegendMM 28 10 LegendMM 101.75     LegendNANA
07:00 10.9 -0.6 45 LegendMM 29 7 LegendMM 101.79     LegendNANA
08:00 13.5 -0.2 39 LegendMM 28 6 LegendMM 101.81     LegendNANA
09:00 15.2 3.1 44 LegendMM 6 7 LegendMM 101.81     LegendNANA
10:00 17.6 2.6 36 LegendMM 4 7 LegendMM 101.81     LegendNANA
11:00 18.4 2.6 34 LegendMM 5 9 LegendMM 101.80     LegendNANA
12:00 20.1 3.9 34 LegendMM 1 11 LegendMM 101.75     LegendNANA
13:00 21.0 1.6 27 LegendMM 1 7 LegendMM 101.72     LegendNANA
14:00 21.9 2.1 27 LegendMM 1 12 LegendMM 101.70     LegendNANA
15:00 23.1 2.0 25 LegendMM 2 5 LegendMM 101.66     LegendNANA
16:00 23.6 0.8 22 LegendMM 2 7 LegendMM 101.61     LegendNANA
17:00 22.0 3.8 30 LegendMM 1 12 LegendMM 101.60     LegendNANA
18:00 20.3 2.9 31 LegendMM 36 7 LegendMM 101.60     LegendNANA
19:00 17.6 2.2 35 LegendMM 24 5 LegendMM 101.62     LegendNANA
20:00 15.3 1.3 38 LegendMM 26 16 LegendMM 101.66     LegendNANA
21:00 14.3 0.5 39 LegendMM 26 15 LegendMM 101.68     LegendNANA
22:00 14.8 0.5 38 LegendMM 27 18 LegendMM 101.71     LegendNANA
23:00 13.6 0.3 40 LegendMM 27 7 LegendMM 101.76     LegendNANA

Notes on Data Quality.

Legend

  • E = Estimated
  • M = Missing
  • NA = Not Available*
  • [empty] = Indicates an unobserved value
Date modified: